sat.trackr.live / text

‹ back to catalog

HULIANWANG DIGUI-129

NORAD 67237 · 2025-311B

PAYLOAD ACTIVE UNKNOWN

§ Identity

Operator
Country
PRC
Launch date
2025-12-25
Launch site
WSC
Launch vehicle
Mass (kg)
RCS (m²)

External: N2YO · Heavens-Above · Gunter

§ Orbital elements

Epoch: 2026-09-20T21:34:00.387840Z

Period
108.33 min
Inclination
50.0060°
Eccentricity
0.0000196
Mean motion
13.29328618 rev/d
Perigee alt
1,149.1 km
Apogee alt
1,149.4 km
Semi-major
7,527.4 km
B*
4.5547e-5
RAAN
132.3581°
Arg perigee
3.7277°
Mean anomaly
356.3596°
Rev number
3,607

§ Raw data

HULIANWANG DIGUI-1291 67237U 25311B   26263.89861560 -.00000103  00000+0  45547-4 0  99922 67237  50.0060 132.3581 0000196   3.7277 356.3596 13.29328618 36079

JSON: /api/v1/satellites/67237 · /tle

For live sub-satellite position, see the globe view (requires WebGL).

§ Visibility from observer

Set your observer location to see the next 7 days of passes ≥ 10°. The values pass through the URL so the page stays shareable.

No JS? Fill the form by hand. The geolocation button needs JavaScript.